DC1MBB-9 Weather Reports


Display with metric or nautical units.
time (UTC)temp
F
wind
direction
speed
MPH
gust
MPH
rain 1hr
in
rain 24hr
in
rain mn
in
humidity
%
barometer
mb
20260902143054 92 0 0.0 0.0 0.00 0.00 0.00 23 962.0
20260902142453 94 0 0.0 0.0 0.00 0.00 0.00 23 962.0
20260902141853 96 0 0.0 0.0 0.00 0.00 0.00 22 962.0
20260902141252 101 0 0.0 0.0 0.00 0.00 0.00 18 962.0
20260902140050 122 0 0.0 0.0 0.00 0.00 0.00 963.0
20260902135449 121 0 0.0 0.0 0.00 0.00 0.00 10 963.0
20260902134848 119 0 0.0 0.0 0.00 0.00 0.00 10 963.0
20260902134248 119 0 0.0 0.0 0.00 0.00 0.00 11 963.0
20260902133647 115 0 0.0 0.0 0.00 0.00 0.00 12 963.0
20260902133046 120 0 0.0 0.0 0.00 0.00 0.00 10 963.0
20260902132445 120 0 0.0 0.0 0.00 0.00 0.00 963.0
20260902131844 120 0 0.0 0.0 0.00 0.00 0.00 10 963.0
20260902131243 116 0 0.0 0.0 0.00 0.00 0.00 12 963.0
20260902130642 118 0 0.0 0.0 0.00 0.00 0.00 11 963.0
20260902130042 114 0 0.0 0.0 0.00 0.00 0.00 13 963.0
20260902125441 112 0 0.0 0.0 0.00 0.00 0.00 14 963.0
20260902124840 113 0 0.0 0.0 0.00 0.00 0.00 14 963.0
20260902124239 103 0 0.0 0.0 0.00 0.00 0.00 19 963.0
20260902123638 98 0 0.0 0.0 0.00 0.00 0.00 23 963.0
20260902123037 87 0 0.0 0.0 0.00 0.00 0.00 32 963.0
20260902122437 86 0 0.0 0.0 0.00 0.00 0.00 33 963.0
20260902121836 85 0 0.0 0.0 0.00 0.00 0.00 35 963.0
20260902121235 84 0 0.0 0.0 0.00 0.00 0.00 36 963.0
20260902120634 83 0 0.0 0.0 0.00 0.00 0.00 36 963.0
20260902120033 82 0 0.0 0.0 0.00 0.00 0.00 38 963.0
20260902115433 82 0 0.0 0.0 0.00 0.00 0.00 38 963.0
20260902114832 81 0 0.0 0.0 0.00 0.00 0.00 38 963.0
20260902114231 81 0 0.0 0.0 0.00 0.00 0.00 38 963.0
20260902113630 81 0 0.0 0.0 0.00 0.00 0.00 37 964.0
20260902113029 81 0 0.0 0.0 0.00 0.00 0.00 40 964.0
20260902112429 82 0 0.0 0.0 0.00 0.00 0.00 41 964.0
20260902111828 81 0 0.0 0.0 0.00 0.00 0.00 42 964.0
20260902111227 81 0 0.0 0.0 0.00 0.00 0.00 41 964.0
20260902110626 80 0 0.0 0.0 0.00 0.00 0.00 43 964.0
20260902110025 80 0 0.0 0.0 0.00 0.00 0.00 43 964.0
20260902105425 79 0 0.0 0.0 0.00 0.00 0.00 43 964.0
20260902104824 79 0 0.0 0.0 0.00 0.00 0.00 44 964.0
20260902104223 79 0 0.0 0.0 0.00 0.00 0.00 44 964.0
20260902103622 78 0 0.0 0.0 0.00 0.00 0.00 45 964.0
20260902103022 78 0 0.0 0.0 0.00 0.00 0.00 46 964.0
20260902102421 78 0 0.0 0.0 0.00 0.00 0.00 47 964.0
20260902101820 78 0 0.0 0.0 0.00 0.00 0.00 46 964.0
20260902101219 78 0 0.0 0.0 0.00 0.00 0.00 46 964.0
20260902100618 78 0 0.0 0.0 0.00 0.00 0.00 45 964.0
20260902100018 78 0 0.0 0.0 0.00 0.00 0.00 46 964.0
20260902095417 78 0 0.0 0.0 0.00 0.00 0.00 47 964.0
20260902094816 77 0 0.0 0.0 0.00 0.00 0.00 47 964.0
20260902094215 77 0 0.0 0.0 0.00 0.00 0.00 47 964.0
20260902093614 77 0 0.0 0.0 0.00 0.00 0.00 49 964.0
20260902093014 77 0 0.0 0.0 0.00 0.00 0.00 50 964.0
20260902092413 76 0 0.0 0.0 0.00 0.00 0.00 51 964.0
20260902091812 76 0 0.0 0.0 0.00 0.00 0.00 54 964.0
20260902091211 76 0 0.0 0.0 0.00 0.00 0.00 52 964.0
20260902090610 75 0 0.0 0.0 0.00 0.00 0.00 52 964.0
20260902090010 75 0 0.0 0.0 0.00 0.00 0.00 52 964.0
20260902085409 74 0 0.0 0.0 0.00 0.00 0.00 54 964.0
20260902084808 74 0 0.0 0.0 0.00 0.00 0.00 55 964.0
20260902084207 73 0 0.0 0.0 0.00 0.00 0.00 54 964.0
20260902083606 73 0 0.0 0.0 0.00 0.00 0.00 56 964.0
20260902083006 72 0 0.0 0.0 0.00 0.00 0.00 57 964.0
20260902082405 72 0 0.0 0.0 0.00 0.00 0.00 58 964.0
20260902081804 71 0 0.0 0.0 0.00 0.00 0.00 59 964.0
20260902081203 71 0 0.0 0.0 0.00 0.00 0.00 62 964.0
20260902080603 71 0 0.0 0.0 0.00 0.00 0.00 65 964.0
20260902080002 71 0 0.0 0.0 0.00 0.00 0.00 65 964.0
20260902075401 71 0 0.0 0.0 0.00 0.00 0.00 67 964.0
20260902074800 71 0 0.0 0.0 0.00 0.00 0.00 68 964.0
20260902074159 70 0 0.0 0.0 0.00 0.00 0.00 70 964.0
20260902073559 70 0 0.0 0.0 0.00 0.00 0.00 73 964.0
20260902072958 69 0 0.0 0.0 0.00 0.00 0.00 74 964.0
20260902072357 69 0 0.0 0.0 0.00 0.00 0.00 74 964.0
20260902071756 69 0 0.0 0.0 0.00 0.00 0.00 78 964.0
20260902071156 68 0 0.0 0.0 0.00 0.00 0.00 79 964.0
20260902070555 68 0 0.0 0.0 0.00 0.00 0.00 84 964.0
20260902065954 67 0 0.0 0.0 0.00 0.00 0.00 88 964.0
20260902065353 66 0 0.0 0.0 0.00 0.00 0.00 89 964.0
20260902064752 66 0 0.0 0.0 0.00 0.00 0.00 90 964.0
20260902064152 65 0 0.0 0.0 0.00 0.00 0.00 92 964.0
20260902063551 65 0 0.0 0.0 0.00 0.00 0.00 93 964.0
20260902062950 65 0 0.0 0.0 0.00 0.00 0.00 92 964.0
20260902062349 64 0 0.0 0.0 0.00 0.00 0.00 96 964.0
20260902061749 64 0 0.0 0.0 0.00 0.00 0.00 95 964.0
20260902061148 64 0 0.0 0.0 0.00 0.00 0.00 96 964.0
20260902060547 63 0 0.0 0.0 0.00 0.00 0.00 96 964.0
20260902055345 62 0 0.0 0.0 0.00 0.00 0.00 98 964.0
20260902054745 62 0 0.0 0.0 0.00 0.00 0.00 98 964.0
20260902054144 61 0 0.0 0.0 0.00 0.00 0.00 97 964.0
20260902053543 62 0 0.0 0.0 0.00 0.00 0.00 96 964.0
20260902052942 62 0 0.0 0.0 0.00 0.00 0.00 93 964.0
20260902052342 61 0 0.0 0.0 0.00 0.00 0.00 95 964.0
20260902051741 61 0 0.0 0.0 0.00 0.00 0.00 95 964.0
20260902051140 61 0 0.0 0.0 0.00 0.00 0.00 95 964.0
20260902050539 61 0 0.0 0.0 0.00 0.00 0.00 94 964.0
20260902045938 61 0 0.0 0.0 0.00 0.00 0.00 94 964.0
20260902045338 61 0 0.0 0.0 0.00 0.00 0.00 93 964.0
20260902044737 61 0 0.0 0.0 0.00 0.00 0.00 93 964.0
20260902044136 61 0 0.0 0.0 0.00 0.00 0.00 93 964.0
20260902043535 61 0 0.0 0.0 0.00 0.00 0.00 92 964.0
20260902042935 61 0 0.0 0.0 0.00 0.00 0.00 93 964.0
20260902042334 61 0 0.0 0.0 0.00 0.00 0.00 93 964.0
20260902041733 61 0 0.0 0.0 0.00 0.00 0.00 92 964.0
20260902041132 61 0 0.0 0.0 0.00 0.00 0.00 93 964.0
20260902040531 61 0 0.0 0.0 0.00 0.00 0.00 94 964.0
20260902035931 61 0 0.0 0.0 0.00 0.00 0.00 92 964.0
20260902035330 62 0 0.0 0.0 0.00 0.00 0.00 91 964.0
20260902034729 61 0 0.0 0.0 0.00 0.00 0.00 92 964.0
20260902034128 62 0 0.0 0.0 0.00 0.00 0.00 92 964.0
20260902033528 62 0 0.0 0.0 0.00 0.00 0.00 92 964.0
20260902032927 62 0 0.0 0.0 0.00 0.00 0.00 91 964.0
20260902032326 62 0 0.0 0.0 0.00 0.00 0.00 91 964.0
20260902031725 62 0 0.0 0.0 0.00 0.00 0.00 91 964.0
20260902031124 62 0 0.0 0.0 0.00 0.00 0.00 91 964.0
20260902030524 62 0 0.0 0.0 0.00 0.00 0.00 91 964.0
20260902025923 62 0 0.0 0.0 0.00 0.00 0.00 92 964.0
20260902025322 62 0 0.0 0.0 0.00 0.00 0.00 94 964.0
20260902024721 62 0 0.0 0.0 0.00 0.00 0.00 91 964.0
20260902024121 62 0 0.0 0.0 0.00 0.00 0.00 93 964.0
20260902023520 62 0 0.0 0.0 0.00 0.00 0.00 95 964.0
20260902022919 61 0 0.0 0.0 0.00 0.00 0.00 96 964.0
20260902022318 63 0 0.0 0.0 0.00 0.00 0.00 89 964.0
20260902021717 63 0 0.0 0.0 0.00 0.00 0.00 90 964.0
20260902021117 63 0 0.0 0.0 0.00 0.00 0.00 89 964.0
20260902020516 63 0 0.0 0.0 0.00 0.00 0.00 89 964.0
20260902015915 63 0 0.0 0.0 0.00 0.00 0.00 88 964.0
20260902015314 63 0 0.0 0.0 0.00 0.00 0.00 87 964.0
20260902014714 63 0 0.0 0.0 0.00 0.00 0.00 88 964.0
20260902014113 64 0 0.0 0.0 0.00 0.00 0.00 87 964.0
20260902013512 64 0 0.0 0.0 0.00 0.00 0.00 87 964.0
20260902012911 64 0 0.0 0.0 0.00 0.00 0.00 87 964.0
20260902012310 64 0 0.0 0.0 0.00 0.00 0.00 86 964.0
20260902011710 64 0 0.0 0.0 0.00 0.00 0.00 86 964.0
20260902011109 64 0 0.0 0.0 0.00 0.00 0.00 86 964.0
20260902010508 64 0 0.0 0.0 0.00 0.00 0.00 86 964.0
20260902005907 64 0 0.0 0.0 0.00 0.00 0.00 88 964.0
20260902005307 64 0 0.0 0.0 0.00 0.00 0.00 88 964.0
20260902004706 64 0 0.0 0.0 0.00 0.00 0.00 88 964.0
20260902004105 64 0 0.0 0.0 0.00 0.00 0.00 87 964.0
20260902003504 64 0 0.0 0.0 0.00 0.00 0.00 87 964.0
20260902002904 63 0 0.0 0.0 0.00 0.00 0.00 89 964.0
20260902002306 63 0 0.0 0.0 0.00 0.00 0.00 86 964.0
20260902001702 65 0 0.0 0.0 0.00 0.00 0.00 85 964.0
20260902001101 65 0 0.0 0.0 0.00 0.00 0.00 84 964.0
20260902000500 65 0 0.0 0.0 0.00 0.00 0.00 85 964.0
20260901235900 65 0 0.0 0.0 0.00 0.00 0.00 85 964.0
20260901235259 65 0 0.0 0.0 0.00 0.00 0.00 86 964.0
20260901234057 65 0 0.0 0.0 0.00 0.00 0.00 84 964.0
20260901232856 65 0 0.0 0.0 0.00 0.00 0.00 84 964.0
20260901232255 65 0 0.0 0.0 0.00 0.00 0.00 84 964.0
20260901231654 66 0 0.0 0.0 0.00 0.00 0.00 84 964.0
20260901231053 65 0 0.0 0.0 0.00 0.00 0.00 84 964.0
20260901230453 66 0 0.0 0.0 0.00 0.00 0.00 82 964.0
20260901225852 66 0 0.0 0.0 0.00 0.00 0.00 82 964.0
20260901225251 66 0 0.0 0.0 0.00 0.00 0.00 82 964.0
20260901224650 66 0 0.0 0.0 0.00 0.00 0.00 82 964.0
20260901224050 66 0 0.0 0.0 0.00 0.00 0.00 82 964.0
20260901223449 66 0 0.0 0.0 0.00 0.00 0.00 83 964.0
20260901222848 66 0 0.0 0.0 0.00 0.00 0.00 81 964.0
20260901222247 66 0 0.0 0.0 0.00 0.00 0.00 84 964.0
20260901221646 66 0 0.0 0.0 0.00 0.00 0.00 82 964.0
20260901221046 66 0 0.0 0.0 0.00 0.00 0.00 81 964.0
20260901220445 67 0 0.0 0.0 0.00 0.00 0.00 80 965.0
20260901215844 67 0 0.0 0.0 0.00 0.00 0.00 79 964.0
20260901215243 67 0 0.0 0.0 0.00 0.00 0.00 78 964.0
20260901214643 68 0 0.0 0.0 0.00 0.00 0.00 78 964.0
20260901214042 67 0 0.0 0.0 0.00 0.00 0.00 80 964.0
20260901213441 68 0 0.0 0.0 0.00 0.00 0.00 77 964.0
20260901212840 68 0 0.0 0.0 0.00 0.00 0.00 76 964.0
20260901212239 68 0 0.0 0.0 0.00 0.00 0.00 77 964.0
20260901211639 68 0 0.0 0.0 0.00 0.00 0.00 75 964.0
20260901211038 68 0 0.0 0.0 0.00 0.00 0.00 75 964.0
20260901210437 68 0 0.0 0.0 0.00 0.00 0.00 74 964.0
20260901205836 68 0 0.0 0.0 0.00 0.00 0.00 74 964.0
20260901205235 69 0 0.0 0.0 0.00 0.00 0.00 73 964.0
20260901204635 68 0 0.0 0.0 0.00 0.00 0.00 74 964.0
20260901204034 69 0 0.0 0.0 0.00 0.00 0.00 72 964.0
20260901203433 69 0 0.0 0.0 0.00 0.00 0.00 73 964.0
20260901202832 69 0 0.0 0.0 0.00 0.00 0.00 70 964.0
20260901202232 69 0 0.0 0.0 0.00 0.00 0.00 70 964.0
20260901201631 70 0 0.0 0.0 0.00 0.00 0.00 68 964.0
20260901201030 70 0 0.0 0.0 0.00 0.00 0.00 68 964.0
20260901200429 70 0 0.0 0.0 0.00 0.00 0.00 68 964.0
20260901195828 70 0 0.0 0.0 0.00 0.00 0.00 66 964.0
20260901195228 70 0 0.0 0.0 0.00 0.00 0.00 66 964.0
20260901194627 70 0 0.0 0.0 0.00 0.00 0.00 67 964.0
20260901194026 71 0 0.0 0.0 0.00 0.00 0.00 63 964.0
20260901193425 71 0 0.0 0.0 0.00 0.00 0.00 63 964.0
20260901192825 71 0 0.0 0.0 0.00 0.00 0.00 61 964.0
20260901192224 71 0 0.0 0.0 0.00 0.00 0.00 60 964.0
20260901191623 71 0 0.0 0.0 0.00 0.00 0.00 59 964.0
20260901191022 71 0 0.0 0.0 0.00 0.00 0.00 59 964.0
20260901190421 72 0 0.0 0.0 0.00 0.00 0.00 58 964.0
20260901185821 72 0 0.0 0.0 0.00 0.00 0.00 57 964.0
20260901185220 73 0 0.0 0.0 0.00 0.00 0.00 56 964.0
20260901184619 73 0 0.0 0.0 0.00 0.00 0.00 57 964.0
20260901184018 73 0 0.0 0.0 0.00 0.00 0.00 56 964.0
20260901182817 73 0 0.0 0.0 0.00 0.00 0.00 53 963.0
20260901182216 73 0 0.0 0.0 0.00 0.00 0.00 52 963.0
20260901181615 74 0 0.0 0.0 0.00 0.00 0.00 51 963.0
20260901181332 74 0 0.0 0.0 0.00 0.00 0.00 50 963.0
20260901181014 74 0 0.0 0.0 0.00 0.00 0.00 50 963.0
20260901180413 74 0 0.0 0.0 0.00 0.00 0.00 49 963.0
20260901175813 75 0 0.0 0.0 0.00 0.00 0.00 48 963.0
20260901175212 76 0 0.0 0.0 0.00 0.00 0.00 46 963.0
20260901174611 76 0 0.0 0.0 0.00 0.00 0.00 46 963.0
20260901174010 76 0 0.0 0.0 0.00 0.00 0.00 46 963.0
20260901173410 76 0 0.0 0.0 0.00 0.00 0.00 44 963.0
20260901172809 77 0 0.0 0.0 0.00 0.00 0.00 43 963.0
20260901172208 77 0 0.0 0.0 0.00 0.00 0.00 42 963.0
20260901171607 77 0 0.0 0.0 0.00 0.00 0.00 42 963.0
20260901171006 77 0 0.0 0.0 0.00 0.00 0.00 42 963.0
20260901170406 77 0 0.0 0.0 0.00 0.00 0.00 42 963.0
20260901165805 78 0 0.0 0.0 0.00 0.00 0.00 41 963.0
20260901165204 78 0 0.0 0.0 0.00 0.00 0.00 40 963.0
20260901164603 78 0 0.0 0.0 0.00 0.00 0.00 40 963.0
20260901164002 78 0 0.0 0.0 0.00 0.00 0.00 40 963.0
20260901163402 78 0 0.0 0.0 0.00 0.00 0.00 39 963.0
20260901162801 79 0 0.0 0.0 0.00 0.00 0.00 39 963.0
20260901162200 79 0 0.0 0.0 0.00 0.00 0.00 38 963.0
20260901161559 79 0 0.0 0.0 0.00 0.00 0.00 38 963.0
20260901160958 80 0 0.0 0.0 0.00 0.00 0.00 38 963.0
20260901160358 80 0 0.0 0.0 0.00 0.00 0.00 37 963.0
20260901155757 80 0 0.0 0.0 0.00 0.00 0.00 37 963.0
20260901155156 81 0 0.0 0.0 0.00 0.00 0.00 36 963.0
20260901154555 81 0 0.0 0.0 0.00 0.00 0.00 36 963.0
20260901153954 81 0 0.0 0.0 0.00 0.00 0.00 36 963.0
20260901153354 80 0 0.0 0.0 0.00 0.00 0.00 36 963.0
20260901152753 81 0 0.0 0.0 0.00 0.00 0.00 36 963.0
20260901152152 81 0 0.0 0.0 0.00 0.00 0.00 35 963.0
20260901151551 82 0 0.0 0.0 0.00 0.00 0.00 36 963.0
20260901150950 82 0 0.0 0.0 0.00 0.00 0.00 35 963.0
20260901150350 82 0 0.0 0.0 0.00 0.00 0.00 34 963.0
20260901145749 83 0 0.0 0.0 0.00 0.00 0.00 33 963.0
20260901145148 83 0 0.0 0.0 0.00 0.00 0.00 33 963.0
20260901144547 83 0 0.0 0.0 0.00 0.00 0.00 33 963.0
20260901143947 84 0 0.0 0.0 0.00 0.00 0.00 33 963.0